Location: Ladrillo (historical)
(32.8195°N, 117.2231°W)
Time: 22:02:50
(UTC+00:00)

Cosmos 1892 Rocket - Pass Details

Date: 29 October 2020
Orbit: 607 x 632 km, 82.5° (Epoch: 26 November)

Event Time Altitude Azimuth Distance (km) Brightness Sun altitude
Rises 12:14:26 0° 179° (S) 2,850 7.0 -23.7°
Reaches altitude 10° 12:16:38 10° 177° (S) 1,952 6.2 -23.2°
Maximum altitude 12:20:55 68° 94° (E) 659 3.8 -22.3°
Drops below altitude 10° 12:25:16 10° 12° (NNE) 1,977 6.2 -21.4°
Sets 12:27:30 0° 10° (N) 2,890 7.1 -20.9°
